Flag for Canada Weather past 2 weeks in Whistler, British Columbia, Canada

Now
41 °F

Quite cool.


Feels Like: 41 °F
Forecast: 25 / 37 °F
Wind: 1 mph from Northeast

Location: Squamish Airport

Current Time: Jan 28, 2015 at 5:18:18 PM

Latest Report: Jan 28, 2015 at 5:00 PM


Visibility: N/A

Pressure: 30.37 "Hg

Humidity: 92%

Dew point: 39 °F

Location of WhistlerLocation

Historic Weather in Whistler — Graph

°F

Whistler temperature yesterday

Maximum temperature yesterday: 46 °F (at 3:00 PM)
Minimum temperature yesterday: 40 °F (at 4:00 AM)
Average temperature yesterday: 43 °F

Past Weeks' High & Low Weather Summary

 TemperatureHumidityPressure
High54 °F (Jan 25, 12:00 PM)100% (Jan 13, 5:00 PM)30.50 "Hg (Jan 13, 5:00 PM)
Low28 °F (Jan 15, 5:00 AM)59% (Jan 28, 3:00 PM)29.51 "Hg (Jan 18, 2:00 AM)
Average40 °F96%30.16 "Hg
* Reported Jan 13 4:00 PM — Jan 28 4:00 PM, Whistler, Weather by CustomWeather, © 2014

Note: Actual official high and low records may vary slightly from our data, if they occured in-between our weather recording intervals... More about our weather records

Advertising

Whistler weather history for previous 24 hours

 ConditionsComfort  
Time TempWeatherWind HumidityBarometerVisibility
4:00 PM
Jan 28
44 °FQuite cool.1 mph85%30.37 "HgN/A
3:00 PM51 °FCool.2 mph59%30.36 "HgN/A
2:00 PM51 °FCool.2 mph62%30.37 "HgN/A
1:00 PM49 °FCool.3 mph68%30.39 "HgN/A
12:00 PM46 °FCool.3 mph78%30.40 "HgN/A
11:00 AM45 °FQuite cool.2 mph81%30.41 "HgN/A
10:00 AM44 °FQuite cool.2 mph88%30.41 "HgN/A
9:00 AM41 °FQuite cool.No wind98%30.40 "HgN/A
8:00 AM40 °FChilly.1 mph99%30.38 "HgN/A
7:00 AM41 °FQuite cool.1 mph92%30.37 "HgN/A
6:00 AM42 °FQuite cool.2 mph99%30.35 "HgN/A
5:00 AM42 °FQuite cool.2 mph97%30.33 "HgN/A
4:00 AM42 °FQuite cool.1 mph93%30.32 "HgN/A
3:00 AM42 °FQuite cool.2 mph94%30.30 "HgN/A
2:00 AM43 °FQuite cool.2 mph97%30.29 "HgN/A
1:00 AM43 °FQuite cool.1 mph94%30.27 "HgN/A
12:00 AM44 °FQuite cool.No wind95%30.25 "HgN/A
11:00 PM
Jan 27
45 °FCool.1 mph99%30.23 "HgN/A
10:00 PM45 °FQuite cool.1 mph99%30.20 "HgN/A
9:00 PM45 °FCool.1 mph99%30.18 "HgN/A
8:00 PM45 °FQuite cool.1 mph100%30.15 "HgN/A
7:00 PM45 °FQuite cool.No wind99%30.13 "HgN/A
6:00 PM45 °FCool.1 mph99%30.11 "HgN/A
5:00 PM45 °FCool.1 mph99%30.09 "HgN/A
Weather by CustomWeather, © 2014

See weather overviewHow to use our weather pages